EW0395 Weather Reports


Display with metric or nautical units.
time (UTC)temp
F
wind
direction
speed
MPH
gust
MPH
rain 1hr
in
rain 24hr
in
rain mn
in
humidity
%
barometer
mb
20260505170034 80 247 2.0 7.0 0.00 0.00 0.00 35 1006.1
20260505164531 79 265 2.0 8.0 0.00 0.00 0.00 37 1006.5
20260505163034 79 238 2.0 7.0 0.00 0.00 0.00 38 1006.9
20260505161541 77 175 2.0 7.0 0.00 0.00 0.00 40 1007.0
20260505153032 76 135 2.0 5.0 0.00 0.00 0.00 42 1008.1
20260505151535 76 176 2.0 6.0 0.00 0.00 0.00 43 1008.4
20260505124531 58 0 0.0 2.0 0.00 0.00 0.00 63 1008.5
20260505123033 58 194 0.0 3.0 0.00 0.00 0.00 64 1008.5
20260505121541 59 219 1.0 7.0 0.00 0.00 0.00 61 1008.2
20260505120034 59 189 0.0 4.0 0.00 0.00 0.00 63 1008.6
20260505114533 57 261 0.0 4.0 0.00 0.00 0.00 64 1008.9
20260505113030 55 27 1.0 3.0 0.00 0.00 0.00 66 1008.7
20260505111535 54 24 0.0 2.0 0.00 0.00 0.00 71 1008.4
20260505101543 53 0 0.0 1.0 0.00 0.00 0.00 68 1008.1
20260505100036 52 0 0.0 1.0 0.00 0.00 0.00 69 1008.1
20260505094531 51 0 0.0 1.0 0.00 0.00 0.00 70 1008.2
20260505093033 52 0 0.0 1.0 0.00 0.00 0.00 68 1008.4
20260505091534 52 0 0.0 2.0 0.00 0.00 0.00 69 1008.5
20260505090041 51 140 0.0 2.0 0.00 0.00 0.00 71 1008.6
20260505084541 50 0 0.0 1.0 0.00 0.00 0.00 72 1008.6
20260505083029 50 0 0.0 1.0 0.00 0.00 0.00 72 1008.5
20260505081531 50 0 0.0 0.0 0.00 0.00 0.00 71 1008.6
20260505080041 51 0 0.0 2.0 0.00 0.00 0.00 70 1008.6
20260505074530 51 0 0.0 2.0 0.00 0.00 0.00 69 1008.6
20260505073034 51 255 0.0 2.0 0.00 0.00 0.00 70 1008.6
20260505071543 50 0 0.0 1.0 0.00 0.00 0.00 71 1008.7
20260505070034 51 0 0.0 1.0 0.00 0.00 0.00 70 1008.7
20260505064537 51 0 0.0 4.0 0.00 0.00 0.00 70 1008.8
20260505063038 51 0 0.0 1.0 0.00 0.00 0.00 69 1008.8
20260505061534 52 0 0.0 2.0 0.00 0.00 0.00 68 1009.0
20260505060038 52 249 0.0 2.0 0.00 0.00 0.00 68 1009.0
20260505054538 52 0 0.0 2.0 0.00 0.00 0.00 67 1008.8
20260505053034 53 265 1.0 4.0 0.00 0.00 0.00 66 1008.9
20260505051534 53 206 0.0 5.0 0.00 0.00 0.00 66 1008.8
20260505041531 53 236 0.0 4.0 0.00 0.00 0.00 65 1008.8
20260505040033 54 247 0.0 4.0 0.00 0.00 0.00 64 1008.7
20260505034535 54 0 0.0 3.0 0.00 0.00 0.00 64 1008.7
20260505033038 54 204 0.0 1.0 0.00 0.00 0.00 63 1008.6
20260505031541 54 21 0.0 3.0 0.00 0.00 0.00 62 1008.5
20260505030032 55 205 0.0 4.0 0.00 0.00 0.00 60 1008.5
20260505024546 54 0 0.0 1.0 0.00 0.00 0.00 59 1008.4
20260505023041 55 0 0.0 1.0 0.00 0.00 0.00 57 1008.3
20260505021535 55 0 0.0 1.0 0.00 0.00 0.00 56 1008.3
20260505020034 54 0 0.0 2.0 0.00 0.00 0.00 59 1008.2
20260505014542 53 0 0.0 1.0 0.00 0.00 0.00 60 1008.3
20260505013032 53 0 0.0 0.0 0.00 0.00 0.00 62 1008.2
20260505011545 54 0 0.0 0.0 0.00 0.00 0.00 61 1008.1
20260505010033 53 0 0.0 1.0 0.00 0.00 0.00 61 1008.1
20260505004534 54 0 0.0 1.0 0.00 0.00 0.00 60 1007.9
20260505003032 55 0 0.0 1.0 0.00 0.00 0.00 59 1007.8
20260505001534 56 0 0.0 1.0 0.00 0.00 0.00 56 1007.6
20260505000033 57 0 0.0 0.0 0.00 0.00 0.00 54 1007.4
20260504234535 59 0 0.0 1.0 0.00 0.00 0.00 50 1007.2
20260504233034 60 0 0.0 2.0 0.00 0.00 0.00 45 1007.0
20260504231533 61 0 0.0 0.0 0.00 0.00 0.00 45 1006.8
20260504230034 63 265 0.0 3.0 0.00 0.00 0.00 43 1006.5
20260504224537 64 0 0.0 3.0 0.00 0.00 0.00 43 1006.4
20260504223033 65 277 0.0 4.0 0.00 0.00 0.00 41 1006.2
20260504221535 65 142 1.0 3.0 0.00 0.00 0.00 41 1006.1
20260504220035 66 242 0.0 8.0 0.00 0.00 0.00 40 1006.0
20260504214533 66 246 0.0 3.0 0.00 0.00 0.00 40 1006.1
20260504213034 66 253 1.0 5.0 0.00 0.00 0.00 38 1006.2
20260504211534 67 328 1.0 7.0 0.00 0.00 0.00 38 1006.2
20260504210041 67 0 1.0 3.0 0.00 0.00 0.00 38 1006.2
20260504204537 66 267 1.0 4.0 0.00 0.00 0.00 39 1006.1
20260504203031 67 258 2.0 7.0 0.00 0.00 0.00 37 1006.0
20260504201530 65 259 1.0 4.0 0.00 0.00 0.00 39 1006.4
20260504200030 66 188 1.0 4.0 0.00 0.00 0.00 39 1006.5
20260504194533 66 274 2.0 6.0 0.00 0.00 0.00 40 1006.5
20260504193034 65 282 1.0 4.0 0.00 0.00 0.00 38 1006.5
20260504191532 67 206 2.0 6.0 0.00 0.00 0.00 38 1006.6
20260504190030 66 303 2.0 5.0 0.00 0.00 0.00 39 1006.5
20260504184532 66 257 2.0 5.0 0.00 0.00 0.00 39 1006.7
20260504183030 66 19 2.0 6.0 0.00 0.00 0.00 39 1006.9
20260504181529 65 259 2.0 8.0 0.00 0.00 0.00 39 1006.6
20260504180033 63 283 1.0 4.0 0.00 0.00 0.00 41 1006.7
20260504174534 63 254 1.0 5.0 0.00 0.00 0.00 41 1006.8
20260504173034 64 215 1.0 6.0 0.00 0.00 0.00 39 1006.9
20260504171532 66 186 2.0 6.0 0.00 0.00 0.00 38 1006.7